Location: Chevoux
(46.3801°N, 4.9476°E)
Time: 11:49:24
(UTC+00:00)

Cosmos 1939 Rocket - Pass Details

Date: 28 January 2021
Orbit: 531 x 584 km, 97.4° (Epoch: 06 March)

Event Time Altitude Azimuth Distance (km) Brightness Sun altitude
Rises 17:24:14 0° 161° (SSE) 2,779 6.4 -8.1°
Reaches altitude 10° 17:26:24 10° 159° (SSE) 1,878 5.5 -8.5°
Maximum altitude 17:30:27 73° 76° (ENE) 600 2.8 -9.1°
Drops below altitude 10° 17:34:29 10° 351° (N) 1,864 5.5 -9.8°
Sets 17:36:37 0° 350° (N) 2,756 6.3 -10.1°
